This demonstration page uses our WeatherBlox Daily Observations layout. Learn more.

Left ArrowRight Arrow

53.62937, 11.41316

Hourly Observations for July 12, 2018

Temp ( °F °C ) Dew Point ( °F °C ) Humidity (%) Winds ( mph kmh ) Pressure ( in mb ) Visibility ( mi km ) Precip ( " mm )
6:50 am 06:50 Partly Cloudy with Fog 61 16 61 16 100 100 NW 3 6 29.97 1015 1 1 N/A
7:20 am 07:20 Partly Cloudy with Mist and Fog 61 16 61 16 100 100 VRB 2 4 29.97 1015 3 5 N/A
7:50 am 07:50 Mostly Sunny 64 18 64 18 100 100 VRB 2 4 29.97 1015 7 11 N/A
8:20 am 08:20 Mostly Sunny 66 19 63 17 88 88 VRB 3 6 29.97 1015 30 48 N/A
8:50 am 08:50 Mostly Sunny 66 19 61 16 83 83 N 8 13 29.97 1015 30 48 N/A
9:20 am 09:20 Mostly Sunny 70 21 61 16 73 73 N 8 13 29.97 1015 30 48 N/A
9:50 am 09:50 Mostly Sunny 70 21 61 16 73 73 N 8 13 29.97 1015 7 11 N/A
10:20 am 10:20 Mostly Sunny 72 22 61 16 69 69 NNW 6 9 29.97 1015 7 11 N/A
10:50 am 10:50 Mostly Sunny 73 23 59 15 61 61 N 7 11 29.97 1015 30 48 N/A
11:20 am 11:20 Mostly Sunny 73 23 57 14 57 57 N 7 11 29.97 1015 30 48 N/A
11:50 am 11:50 Mostly Sunny 75 24 57 14 54 54 N 6 9 29.97 1015 30 48 N/A
12:20 pm 12:20 Mostly Sunny 77 25 55 13 47 47 NW 7 11 29.97 1015 7 11 N/A
12:50 pm 12:50 Mostly Sunny 77 25 57 14 51 51 NW 9 15 29.97 1015 7 11 N/A
1:20 pm 13:20 Mostly Sunny 75 24 57 14 54 54 NW 8 13 29.97 1015 7 11 N/A
1:50 pm 13:50 Mostly Sunny 79 26 55 13 45 45 NNW 13 20 29.97 1015 7 11 N/A
2:20 pm 14:20 Mostly Sunny 79 26 55 13 45 45 NNW 9 15 29.97 1015 7 11 N/A
2:50 pm 14:50 Mostly Sunny 81 27 54 12 39 39 VRB 6 9 29.97 1015 7 11 N/A
3:20 pm 15:20 Mostly Sunny 81 27 54 12 39 39 VRB 6 9 29.94 1014 7 11 N/A
3:50 pm 15:50 Mostly Sunny 79 26 54 12 42 42 VRB 6 9 29.94 1014 7 11 N/A
4:20 pm 16:20 Mostly Sunny 81 27 55 13 42 42 VRB 6 9 29.94 1014 7 11 N/A
4:50 pm 16:50 Mostly Sunny 81 27 52 11 37 37 VRB 3 6 29.94 1014 7 11 N/A
5:20 pm 17:20 Mostly Sunny 81 27 54 12 39 39 VRB 5 7 29.94 1014 7 11 N/A
5:50 pm 17:50 Mostly Sunny 79 26 52 11 39 39 VRB 3 6 29.94 1014 7 11 N/A
6:20 pm 18:20 Mostly Sunny 79 26 52 11 39 39 VRB 2 4 29.94 1014 7 11 N/A
6:50 pm 18:50 Mostly Sunny 77 25 54 12 44 44 VRB 2 4 29.94 1014 7 11 N/A
7:20 pm 19:20 Partly Cloudy with Thunderstorms 79 26 54 12 42 42 NNE 6 9 29.94 1014 30 48 N/A
7:50 pm 19:50 Partly Cloudy with Showers Nearby 77 25 57 14 51 51 VRB 2 4 29.97 1015 30 48 N/A
8:20 pm 20:20 Partly Cloudy with Heavy Rain 70 21 57 14 64 64 VRB 6 9 29.97 1015 4 6 N/A
8:50 pm 20:50 Mostly Sunny 64 18 64 18 100 100 SSW 5 7 29.97 1015 7 11 N/A

Powered by AerisWeather